Weather History for KFSM - January, 2013

Change the Weather History Date:

Saturday, January 26, 2013

  Actual Average Record
Temperature  
Mean Temperature 43 °F 40 °F  
Max Temperature 53 °F 51 °F 80 °F (1952)
Min Temperature 32 °F 29 °F 3 °F (1904)
Degree Days  
Heating Degree Days 22 25  
Month to date heating degree days 609 670  
Since 1 July heating degree days 1701 1969  
Moisture  
Dew Point 32 °F    
Average Humidity 68    
Maximum Humidity 100    
Minimum Humidity 35    
Precipitation  
Precipitation 0.00 in 0.09 in 2.50 in (1916)
Month to date precipitation 1.25 2.33  
Year to date precipitation 1.25 2.33  
Sea Level Pressure  
Sea Level Pressure 30.24 in    
Wind  
Wind Speed 7 mph (ENE)    
Max Wind Speed 16 mph    
Max Gust Speed 20 mph    
Visibility 5 miles    
Events Fog    
T = Trace of Precipitation, MM = Missing Value Source: NWS Daily Summary

Daily Weather History Graph

Daily Weather History Graph

Search for Another Location

Airport or City:

Trip Planner

Search our weather history database for the weather conditions in past years. The results will help you decide how hot, cold, wet, or windy it might be!

Date:

Astronomy

Jan. 26, 2013 Rise Set
Actual Time 7:20 AM CST 5:39 PM CST
Civil Twilight 6:53 AM CST 6:06 PM CST
Nautical Twilight 6:23 AM CST 6:37 PM CST
Astronomical Twilight 5:52 AM CST 7:07 PM CST
Moon 5:33 PM CST (1/26) 6:40 AM CST (1/26)
Length of Visible Light 11h 13m
Length of Day
10h 19m
Full, 100% of the Moon is Illuminated
Jan 26
Full
Jan 26
Full
Feb 3
Last Quarter
Feb 10
New
Feb 17
First Quarter

Hourly Weather History & Observations

Time (CST) Temp. Windchill Dew Point Humidity Pressure Visibility Wind Dir Wind Speed Gust Speed Precip Events Conditions
12:53 AM 37.9 °F - 35.1 °F 89% 30.26 in 4.0 mi Calm Calm - N/A   Clear
1:22 AM 35.6 °F - 33.8 °F 93% 30.25 in 1.5 mi Calm Calm - N/A   Clear
1:30 AM 33.8 °F - 32.0 °F 93% 30.25 in 0.8 mi Calm Calm - N/A   Mist
1:33 AM 35.6 °F - 33.8 °F 93% 30.25 in 1.2 mi Calm Calm - N/A   Partly Cloudy
1:53 AM 34.0 °F - 30.9 °F 89% 30.27 in 1.5 mi Calm Calm - N/A   Clear
1:58 AM 33.8 °F - 32.0 °F 93% 30.26 in 3.0 mi Calm Calm - N/A   Clear
2:19 AM 35.6 °F - 32.0 °F 87% 30.26 in 2.5 mi Calm Calm - N/A   Clear
2:34 AM 35.6 °F - 32.0 °F 87% 30.25 in 3.0 mi Calm Calm - N/A   Partly Cloudy
2:40 AM 35.6 °F - 32.0 °F 87% 30.26 in 2.5 mi Calm Calm - N/A   Scattered Clouds
2:42 AM 35.6 °F - 32.0 °F 87% 30.26 in 1.0 mi Calm Calm - N/A   Mist
2:45 AM 33.8 °F - 32.0 °F 93% 30.26 in 0.2 mi Calm Calm - N/A Fog Fog
2:53 AM 32.0 °F - 30.0 °F 92% 30.26 in 0.2 mi Calm Calm - N/A Fog Fog
3:15 AM 33.8 °F 27.7 °F 30.2 °F 87% 30.24 in 0.2 mi NE 6.9 mph - N/A Fog Fog
3:53 AM 34.0 °F 28.8 °F 33.1 °F 96% 30.24 in 0.2 mi ENE 5.8 mph - N/A Fog Fog
4:53 AM 35.1 °F 29.3 °F 33.1 °F 92% 30.23 in 0.2 mi NE 6.9 mph - N/A Fog Fog
5:53 AM 35.1 °F 28.6 °F 34.0 °F 96% 30.23 in 0.2 mi NE 8.1 mph - N/A Fog Fog
6:53 AM 34.0 °F 31.0 °F 33.1 °F 96% 30.27 in 0.2 mi ENE 3.5 mph - N/A Fog Fog
7:53 AM 34.0 °F 31.0 °F 32.0 °F 92% 30.28 in 0.2 mi ENE 3.5 mph - N/A Fog Fog
8:39 AM 35.6 °F 29.9 °F 33.8 °F 93% 30.27 in 0.2 mi NE 6.9 mph - N/A Fog Fog
8:45 AM 35.6 °F 29.9 °F 33.8 °F 93% 30.27 in 1.0 mi ENE 6.9 mph - N/A   Mist
8:50 AM 37.4 °F 32.8 °F 33.8 °F 87% 30.27 in 2.0 mi NE 5.8 mph - N/A   Scattered Clouds
8:53 AM 37.0 °F 31.6 °F 35.1 °F 93% 30.28 in 2.0 mi NE 6.9 mph - N/A   Scattered Clouds
9:11 AM 39.2 °F 33.0 °F 37.4 °F 93% 30.27 in 4.0 mi ENE 9.2 mph - N/A   Clear
9:53 AM 42.1 °F 36.6 °F 37.0 °F 82% 30.29 in 8.0 mi ENE 9.2 mph - N/A   Overcast
10:53 AM 46.0 °F 40.6 °F 35.1 °F 66% 30.29 in 10.0 mi East 11.5 mph - N/A   Overcast
11:53 AM 50.0 °F - 30.0 °F 46% 30.28 in 10.0 mi East 13.8 mph 18.4 mph N/A   Overcast
12:53 PM 51.1 °F - 28.9 °F 43% 30.24 in 10.0 mi East 13.8 mph - N/A   Overcast
1:53 PM 53.1 °F - 26.1 °F 35% 30.21 in 10.0 mi East 9.2 mph 17.3 mph N/A   Overcast
2:53 PM 51.1 °F - 26.1 °F 38% 30.20 in 10.0 mi ESE 5.8 mph - N/A   Overcast
3:53 PM 50.0 °F - 28.0 °F 43% 30.20 in 10.0 mi East 6.9 mph - N/A   Overcast
4:53 PM 51.1 °F - 28.9 °F 43% 30.20 in 10.0 mi East 5.8 mph - N/A   Overcast
5:53 PM 50.0 °F - 28.0 °F 43% 30.20 in 10.0 mi East 5.8 mph - N/A   Overcast
6:53 PM 50.0 °F - 28.0 °F 43% 30.21 in 10.0 mi East 6.9 mph - N/A   Overcast
7:53 PM 50.0 °F - 28.9 °F 44% 30.21 in 10.0 mi East 6.9 mph - N/A   Overcast
8:53 PM 48.9 °F - 28.9 °F 46% 30.21 in 10.0 mi East 6.9 mph - N/A   Overcast
9:53 PM 48.9 °F - 30.0 °F 48% 30.21 in 10.0 mi East 6.9 mph - N/A   Overcast
10:53 PM 48.9 °F - 33.1 °F 54% 30.20 in 10.0 mi East 9.2 mph - N/A   Overcast
11:53 PM 48.0 °F - 35.1 °F 61% 30.19 in 10.0 mi East 8.1 mph - N/A   Overcast